{"data":{"norad_id":68673,"intl_designator":"2026-077M","name":"STARLINK-37316","alt_names":[],"object_type":"PAYLOAD","status":"ACTIVE","operator":null,"country":"US","launch_date":"2026-04-11","launch_site_code":"AFWTR","launch_vehicle":null,"mission":null,"orbit_class":"UNKNOWN","rcs_meters":null,"size_class":null,"mass_kg":null,"dimensions":null,"purposes":["comms"],"wikipedia_slug":null,"has_3d_model":false,"image_url":null,"decayed_at":null,"tle_current":{"epoch":"2026-05-25T03:13:21.468000Z","epoch_age_seconds":59554,"freshness":"FRESH","line1":"1 68673U 26077M   26145.13427625  .00016433  00000+0  51001-3 0  9996","line2":"2 68673  97.2871  16.7152 0001939  97.5158 262.6305 15.33457167  6872","mean_motion":15.33457167,"eccentricity":0.0001939,"inclination_deg":97.2871,"raan_deg":16.7152,"arg_perigee_deg":97.5158,"mean_anomaly_deg":262.6305,"bstar":0.00051001,"rev_number":687,"period_min":93.905459571275,"perigee_km":464.17999171909,"apogee_km":466.83395685231,"semimajor_km":6843.6439742857,"source":"CELESTRAK","updated_at":"2026-05-25T13:38:21.993792Z"}}}